Location: Hamburg
(53.5554°N, 9.9941°E)
Time: 03:53:38
(UTC+01:00)

ISS - Pass Details

Date: 06 January 2018
Orbit: 402 x 407 km, 51.6° (Epoch: 21 January)

Event Time Altitude Azimuth Distance (km) Brightness Sun altitude
Exits shadow 05:13:18 18° 96° (E) 1,097 -0.9 -28.6°
Drops below altitude 10° 05:14:16 10° 90° (E) 1,471 0.0 -28.4°
Sets 05:16:24 0° 85° (E) 2,334 1.3 -28.1°
